ミュラー彗星

190P/Mueller (1998)

English version
Home page
Updated on July 28, 2007

---------------------------------------------------------------------

・ プロフィール

符号 190P/1998 U2
発見日 1998年10月21日
発見光度 18等
発見者 J. Mueller (Palomar Outer Solar System Ecliptic Survey)

・ 写真集

・ 軌道要素

                    Epoch = 1998 Nov.  3.0 TT
     T = 1998 Oct. 20.75954 TT        Peri. =  49.53569
     e = 0.5215660                    Node  = 336.22405 2000.0
     q = 2.0253092 AU                 Incl. =   2.19329
       a =  4.2332052 AU   n = 0.11316187   P =   8.71 years

・ 星図

・ 光度変化

        m1 = 7.5 + 5 logΔ + 30.0 log r

---------------------------------------------------------------------

軌道要素は、 IAUC 8859 に掲載されたものです。
星図は StellaNavigator Ver.2.0 for Windows (アストロアーツ 編著 / アスキー出版局刊) で作成したものです。
光度グラフはComet for Windowsで作成したものです。

---------------------------------------------------------------------

Copyright(C) Seiichi Yoshida (comet@aerith.net). All rights reserved.